Вернуться в каталог

CZ-6A DEB

АктивенPO
NORAD 61336·DEBRIS·🇨🇳 China

Запущен Aug 6, 2024 с Taiyuan Satellite Launch Center

Loading…

Ближайшие Пролёты (ближайшие 24 часа)

TLE

СвежийSource: Space-Track

Эпоха: Sep 14, 2026, 10:00 UTC

1 61336U 24140UZ  26257.41703589  .00002097  00000-0  11154-2 0  9991
2 61336  88.8523 253.3928 0103584 307.4497  51.7297 14.10458268104300

Отслеживайте CZ-6A DEB в реальном времени с AllMySat

Download on the App Store